Find Starlink 32462

NORAD ID: 62129 Int'l Des: 2024-222 Owner: SPXS Country: US Constellation: starlink operational
LEOCIRCULAR

当前视图

正在加载3D地球...

About Starlink 32462

Starlink 32462 (NORAD 62129) is a starlink constellation satellite (v2 mini) launched Nov 27, 2024 by SPXS of US. It operates in LEO, CIRCULAR orbit with a mass of 730.00 kg.

即将过境

Passes for default location (London). Set your location on the main map for personalized predictions.

高度历史

Loading altitude history...

两行轨道根数

1 62129U 24222R 26252.13926499 .00019465 00000-0 71429-3 0 9993
2 62129 43.0003 176.8338 0002717 246.9002 113.1563 15.27610493100849
Epoch: Sep 9, 2026 • Age: 28 hours

当前状态

高度 490.5 km
远地点 / 近地点 N/A
速度 7.62 km/s
星下点 -33.56°S, 59.55°W
发射日期 Nov 27, 2024
运行时间 1.7 years
类型 internet

技术详情

分类 Payload
质量 730.00 kg
干质量 700.00 kg
总质量 730.00 kg
长度 0.30 m
直径 4.10 m
跨度 29.00 m
形状 Box + pan
制造商 SPXS
平台类型 Starlink V2M
阶段状态 In Orbit
所有者/国家 SPXS/US

Most Searched